Regional Weather Roundup
Issued by NWS State College, PA

Home | Current Version | Previous Version | Text Only | Print | Product List | Glossary Off
Versions: 1 2 3 4 5 6 7 8 9 10 11 12 13 14 15 16 17 18 19 20 21 22 23 24 25 26 27 28 29 30 31 32 33 34 35 36 37 38 39 40 41 42 43 44 45 46 47 48 49 50

000
ASUS41 KCTP 222203
RWRCTP

REGIONAL WEATHER ROUNDUP
NATIONAL WEATHER SERVICE STATE COLLEGE PA
600 PM EDT WED OCT 22 2014

Note: "fair" indicates few or no clouds below 12,000 feet with no
significant weather and/or obstructions to visibility.

* = STATION THAT DOES NOT REPORT PRECIPITATION /E.G. RAIN...SNOW...ETC/
    THUNDER OR FOG.

PAZ002>004-007>009-013>016-020>023-029>032-222300-
WESTERN PENNSYLVANIA

CITY           SKY/WX    TMP DP  RH WIND       PRES   REMARKS
ERIE           CLOUDY    49  41  74 NE5       30.23S
MEADVILLE      CLOUDY    46  40  79 N9        30.20S
FRANKLIN*      CLOUDY    45  37  76 N9G17     30.20R
NEW CASTLE       N/A     47  42  82 N10       30.21S
BEAVER COUNTY  CLOUDY    46  41  81 N8G16     30.18S
BUTLER*        CLOUDY    46  39  76 N5        30.19R
PITTSBURGH INT CLOUDY    49  41  74 N10       30.17S
PITTSBURGH     CLOUDY    49  39  68 NW8       30.15S
INDIANA*       CLOUDY    48  43  81 N6        30.17S
LATROBE        NOT AVBL
WASHINGTON CO* CLOUDY    48  39  71 N6        30.18S
$$

PAZ004>006-010>012-017>019-024>028-033>037-041-042-045-046-049>053-222300-
CENTRAL PENNSYLVANIA

CITY           SKY/WX    TMP DP  RH WIND       PRES   REMARKS
BRADFORD       CLOUDY    41  39  93 N12G18    30.14S
DUBOIS         CLOUDY    44  40  85 N9        30.12R
CLEARFIELD     CLOUDY    47  40  76 N14       30.10F
JOHNSTOWN      CLOUDY    43  39  86 NW15      30.09S
ALTOONA        CLOUDY    49  42  77 NW8       30.06S
STATE COLLEGE  CLOUDY    48  41  76 N14       30.06S
WILLIAMSPORT   CLOUDY    51  42  71 NW10      30.04S
SELINSGROVE    CLOUDY    53  43  68 NW14G24   30.02R
FT INDIANTOWN  CLOUDY    53  49  87 N18G31    29.94S
CAPITAL CITY   CLOUDY    55  44  66 N12G25    29.97S
HARRISBURG     CLOUDY    54  44  69 N17G26    29.95S
YORK           CLOUDY    54  45  71 N12G21    29.95S
$$

PAZ038>040-043-044-047-048-054-055-060>062-067>071-222300-
EASTERN PENNSYLVANIA

CITY           SKY/WX    TMP DP  RH WIND       PRES   REMARKS
SCRANTON       LGT RAIN  52  46  80 N16G24    29.96F
MOUNT POCONO   CLOUDY    48  44  86 N13G22    29.90F
ALLENTOWN      CLOUDY    55  46  71 N20G28    29.89S
QUAKERTOWN*    CLOUDY    54  48  82 N13G20    29.88S
READING        LGT RAIN  56  46  69 N17       29.91R
LANCASTER      CLOUDY    54  45  71 N18G28    29.92S
COATESVILLE    LGT RAIN  54  48  82 N13G23    29.89R
POTTSTOWN      CLOUDY    53  49  86 N12G20    29.89R
BLUE BELL      CLOUDY    54  52  94 CALM      29.85S
DOYLESTOWN     LGT RAIN  52  50  93 N13G24    29.85S
WILLOW GROVE   NOT AVBL
NORTH PHILA    LGT RAIN  56  48  74 N16       29.85F
PHILADELPHIA   LGT RAIN  55  50  83 N14       29.85R
$$



USA.gov is the U.S. government's official web portal to all federal, state and local government web resources and services.